Birmingham, United Kingdom

5:05 AM BST on August 21, 2017 (GMT +0100)
Birmingham

Weather History for EGBB - August, 2013

Change the Weather History Date:

Tuesday, August 27, 2013

  Actual Average Record
Temperature  
Mean Temperature 61 °F -  
Max Temperature 71 °F 64 °F 73 °F (2002)
Min Temperature 51 °F 48 °F 46 °F (1998)
Degree Days  
Heating Degree Days 4    
Growing Degree Days 11 (Base 50)    
Moisture  
Dew Point 55 °F    
Average Humidity 82    
Maximum Humidity 100    
Minimum Humidity 50    
Precipitation  
Precipitation 0.00 in 0.07 in - ()
Sea Level Pressure  
Sea Level Pressure 30.10 in    
Wind  
Wind Speed 4 mph ()    
Max Wind Speed 12 mph    
Max Gust Speed -    
Visibility 3.1 miles    
Events Fog    
Averages and records for this station are not official NWS values.
T = Trace of Precipitation, MM = Missing Value Source: Averaged Metar Reports

Daily Weather History Graph

Daily Weather History Graph

Search for Another Location

Airport or City:

Trip Planner

Search our weather history database for the weather conditions in past years. The results will help you decide how hot, cold, wet, or windy it might be!

Date:

Astronomy

Aug. 27, 2013 Rise Set
Actual Time 6:09 AM BST 8:05 PM BST
Civil Twilight 5:33 AM BST 8:42 PM BST
Nautical Twilight 4:47 AM BST 9:27 PM BST
Astronomical Twilight 3:55 AM BST 10:18 PM BST
Moon 10:50 PM BST (8/27) 1:51 PM BST (8/27)
Length of Visible Light 15h 09m
Length of Day
13h 56m
Waning Gibbous, 59% of the Moon is Illuminated
Aug 27
Waning Gibbous
Aug 28
Last Quarter
Sep 5
New
Sep 12
First Quarter
Sep 19
Full

Hourly Weather History & Observations

Time (BST) Temp. Dew Point Humidity Pressure Visibility Wind Dir Wind Speed Gust Speed Precip Events Conditions
12:20 AM 59.0 °F 55.4 °F 88% 30.12 in - ENE 3.5 mph - N/A   Clear
12:50 AM 57.2 °F 55.4 °F 94% 30.12 in - NNE 4.6 mph - N/A   Clear
1:20 AM 55.4 °F 53.6 °F 94% 30.12 in - Calm Calm - N/A   Clear
1:50 AM 51.8 °F 51.8 °F 100% 30.09 in 0.2 mi NW 2.3 mph - N/A Fog Fog
2:20 AM 51.8 °F 51.8 °F 100% 30.09 in 0.2 mi NW 2.3 mph - N/A Fog Patches of Fog
2:50 AM 51.8 °F 51.8 °F 100% 30.09 in 0.6 mi Calm Calm - N/A Fog Fog
3:20 AM 51.8 °F 50.0 °F 94% 30.09 in 0.3 mi NNW 2.3 mph - N/A Fog Shallow Fog
3:50 AM 51.8 °F 51.8 °F 100% 30.09 in 0.2 mi North 3.5 mph - N/A Fog Fog
4:20 AM 53.6 °F 53.6 °F 100% 30.09 in 0.1 mi Variable 2.3 mph - N/A Fog Fog
4:50 AM 53.6 °F 53.6 °F 100% 30.09 in 0.1 mi NNE 3.5 mph - N/A Fog Fog
5:20 AM 53.6 °F 53.6 °F 100% 30.09 in 0.1 mi NNE 4.6 mph - N/A Fog Fog
5:50 AM 53.6 °F 53.6 °F 100% 30.09 in 0.1 mi Variable 3.5 mph - N/A Fog Fog
6:20 AM 53.6 °F 53.6 °F 100% 30.09 in 0.1 mi North 4.6 mph - N/A Fog Fog
6:50 AM 53.6 °F 53.6 °F 100% 30.09 in 0.1 mi NNE 4.6 mph - N/A Fog Fog
7:20 AM 53.6 °F 53.6 °F 100% 30.09 in 0.1 mi NNE 4.6 mph - N/A Fog Fog
7:50 AM 53.6 °F 53.6 °F 100% 30.09 in 0.2 mi NNE 4.6 mph - N/A Fog Fog
8:20 AM 53.6 °F 53.6 °F 100% 30.12 in 0.1 mi NNE 4.6 mph - N/A Fog Fog
8:50 AM 53.6 °F 53.6 °F 100% 30.12 in 0.2 mi NNE 4.6 mph - N/A Fog Fog
9:20 AM 55.4 °F 55.4 °F 100% 30.12 in 1.2 mi North 4.6 mph - N/A   Overcast
9:50 AM 55.4 °F 55.4 °F 100% 30.12 in 3.1 mi North 4.6 mph - N/A   Mostly Cloudy
10:20 AM 59.0 °F 57.2 °F 94% 30.09 in 6.2 mi Variable 3.5 mph - N/A   Partly Cloudy
10:50 AM 60.8 °F 57.2 °F 88% 30.09 in - Variable 3.5 mph - N/A   Clear
11:20 AM 64.4 °F 55.4 °F 73% 30.09 in - Variable 2.3 mph - N/A   Clear
11:50 AM 68.0 °F 55.4 °F 64% 30.09 in - Variable 4.6 mph - N/A   Clear
12:20 PM 69.8 °F 53.6 °F 56% 30.09 in - Variable 3.5 mph - N/A   Clear
12:50 PM 69.8 °F 53.6 °F 56% 30.09 in - NNW 5.8 mph - N/A   Clear
1:20 PM 69.8 °F 51.8 °F 53% 30.09 in 6.2 mi NNW 6.9 mph - N/A   Partly Cloudy
1:50 PM 71.6 °F 53.6 °F 53% 30.09 in 6.2 mi NW 5.8 mph - N/A   Partly Cloudy
2:20 PM 71.6 °F 51.8 °F 50% 30.09 in 6.2 mi North 8.1 mph - N/A   Partly Cloudy
2:50 PM 71.6 °F 51.8 °F 50% 30.09 in 6.2 mi North 6.9 mph - N/A   Scattered Clouds
3:20 PM 71.6 °F 51.8 °F 50% 30.09 in 6.2 mi North 8.1 mph - N/A   Scattered Clouds
3:50 PM 71.6 °F 55.4 °F 57% 30.09 in 6.2 mi NNW 8.1 mph - N/A   Partly Cloudy
4:20 PM 71.6 °F 55.4 °F 57% 30.09 in 6.2 mi North 8.1 mph - N/A   Partly Cloudy
4:50 PM 69.8 °F 57.2 °F 64% 30.09 in 6.2 mi North 8.1 mph - N/A   Partly Cloudy
5:20 PM 69.8 °F 57.2 °F 64% 30.09 in 5.6 mi North 6.9 mph - N/A   Partly Cloudy
5:50 PM 69.8 °F 57.2 °F 64% 30.09 in 4.3 mi NNW 6.9 mph - N/A   Unknown
6:20 PM 69.8 °F 57.2 °F 64% 30.09 in 4.3 mi North 9.2 mph - N/A   Unknown
6:50 PM 68.0 °F 57.2 °F 68% 30.09 in 5.6 mi NNW 9.2 mph - N/A   Unknown
7:20 PM 68.0 °F 57.2 °F 68% 30.09 in 5.6 mi North 9.2 mph - N/A   Unknown
7:50 PM 66.2 °F 59.0 °F 78% 30.09 in 5.6 mi NNW 9.2 mph - N/A   Unknown
8:20 PM 64.4 °F 59.0 °F 83% 30.12 in 6.2 mi NNW 9.2 mph - N/A   Unknown
8:50 PM 62.6 °F 59.0 °F 88% 30.12 in - NW 11.5 mph - N/A   Clear
9:20 PM 62.6 °F 57.2 °F 82% 30.12 in - NNW 10.4 mph - N/A   Clear
9:50 PM 60.8 °F 57.2 °F 88% 30.15 in - NNW 9.2 mph - N/A   Clear
10:20 PM 60.8 °F 57.2 °F 88% 30.15 in - NNW 9.2 mph - N/A   Clear
10:50 PM 59.0 °F 55.4 °F 88% 30.15 in - NW 8.1 mph - N/A   Clear
11:20 PM 59.0 °F 55.4 °F 88% 30.15 in 5.0 mi NW 6.9 mph - N/A   Unknown
11:50 PM 57.2 °F 53.6 °F 88% 30.18 in 4.3 mi NW 5.8 mph - N/A   Unknown